Home > Weather > Piraeus > Past weeks

Flag for Greece Past Weather in Piraeus, Greece — Yesterday and Last 2 Weeks

Now
77 °F

Clear.


Feels Like: 78 °F
Forecast: 78 / 93 °F
Wind: 7 mph from North

Location: Elefsis Airport

Current Time: Jul 29, 2016 at 3:19:42 AM

Latest Report: Jul 29, 2016 at 2:50 AM


Visibility: 10 mi

Pressure: 29.83 "Hg

Humidity: 34%

Dew Point: 46 °F

Location of PiraeusLocation

Past Weather in Piraeus — Graph

°F

Piraeus Temperature Yesterday

Maximum temperature yesterday: 93 °F (at 12:50 PM)
Minimum temperature yesterday: 73 °F (at 5:20 AM)
Average temperature yesterday: 85 °F

High & Low Weather Summary for the Past Weeks

 TemperatureHumidityPressure
High99 °F (Jul 23, 4:20 PM)88% (Jul 19, 3:50 AM)29.98 "Hg (Jul 19, 3:50 AM)
Low59 °F (Jul 19, 3:50 AM)14% (Jul 17, 2:50 PM)29.68 "Hg (Jul 15, 5:20 PM)
Average84 °F33%29.84 "Hg
* Reported Jul 14 1:20 AM — Jul 29 1:50 AM, Piraeus, Weather by CustomWeather, © 2016

Note: Actual official high and low records may vary slightly from our data, if they occured in-between our weather recording intervals... More about our weather records

Advertising

Piraeus Weather History for the Previous 24 Hours

Scroll right to see more
 ConditionsComfort  
Time TempWeatherWind HumidityBarometerVisibility
1:50 AM
Fri, Jul 29
77 °FClear.6 mph34%29.86 "Hg10 mi
1:20 AM77 °FClear.6 mph34%29.86 "Hg10 mi
12:50 AM79 °FClear.7 mph30%29.86 "Hg10 mi
12:20 AM79 °FClear.8 mph30%29.86 "Hg10 mi
11:50 PM
Thu, Jul 28
81 °FClear.9 mph28%29.86 "Hg10 mi
11:20 PM81 °FClear.3 mph28%29.86 "Hg10 mi
10:50 PM81 °FClear.3 mph28%29.86 "Hg10 mi
10:20 PM81 °FClear.6 mph28%29.86 "Hg10 mi
9:50 PM82 °FClear.7 mph26%29.86 "Hg10 mi
9:20 PM84 °FSunny.7 mph25%29.86 "Hg10 mi
8:50 PM86 °FSunny.6 mph22%29.86 "Hg10 mi
8:20 PM88 °FSunny.8 mph19%29.83 "Hg10 mi
7:50 PM90 °FSunny.9 mph18%29.83 "Hg10 mi
7:20 PM91 °FSunny.8 mph16%29.83 "Hg10 mi
6:50 PM91 °FSunny.12 mph16%29.83 "Hg10 mi
6:20 PM93 °FSunny.12 mph16%29.83 "Hg10 mi
5:50 PM93 °FSunny.14 mph16%29.83 "Hg10 mi
5:20 PM93 °FSunny.12 mph16%29.83 "Hg10 mi
4:50 PM93 °FSunny.12 mph17%29.83 "Hg10 mi
4:20 PM93 °FSunny.12 mph17%29.86 "Hg10 mi
3:50 PM93 °FSunny.12 mph19%29.86 "Hg10 mi
3:20 PM93 °FSunny.12 mph19%29.86 "Hg10 mi
2:50 PM93 °FSunny.12 mph20%29.86 "Hg10 mi
2:20 PM93 °FSunny.12 mph20%29.86 "Hg10 mi
1:50 PM93 °FPassing clouds.14 mph23%29.86 "HgN/A
1:20 PM93 °FPassing clouds.12 mph21%29.86 "HgN/A
12:50 PM93 °FPassing clouds.14 mph23%29.86 "HgN/A
12:20 PM91 °FPassing clouds.14 mph24%29.86 "HgN/A
11:50 AM90 °FPassing clouds.12 mph27%29.86 "HgN/A
11:20 AM90 °FPassing clouds.14 mph29%29.86 "HgN/A
10:50 AM90 °FSunny.12 mph29%29.86 "Hg10 mi
10:20 AM88 °FSunny.12 mph33%29.89 "Hg10 mi
9:50 AM88 °FSunny.7 mph31%29.89 "Hg10 mi
9:20 AM86 °FSunny.7 mph31%29.89 "Hg10 mi
8:50 AM86 °FSunny.6 mph29%29.89 "Hg10 mi
8:20 AM84 °FSunny.No wind31%29.89 "Hg10 mi
7:50 AM79 °FSunny.No wind37%29.89 "Hg10 mi
7:20 AM75 °FClear.No wind41%29.89 "Hg10 mi
6:50 AM73 °FClear.No wind44%29.86 "Hg10 mi
6:20 AM73 °FClear.3 mph41%29.86 "Hg10 mi
5:50 AM75 °FClear.6 mph39%29.86 "Hg10 mi
5:20 AM73 °FClear.7 mph44%29.86 "Hg10 mi
4:50 AM75 °FClear.7 mph41%29.89 "Hg10 mi
4:20 AM77 °FClear.8 mph39%29.89 "Hg10 mi
3:50 AM77 °FClear.8 mph39%29.89 "Hg10 mi
3:20 AM77 °FClear.8 mph39%29.89 "Hg10 mi
Weather by CustomWeather, © 2016

See weather overviewHow to use our weather pages